Hourly Weather Razgrad

Today, 2 July, Thursday

Time Temperature Precipitation Wind Pressure Humidity
00:00 +22°C° 0 mm 1 mps 740 mmHg 89%
01:00 +22°C° 0 mm 1 mps 740 mmHg 89%
02:00 +22°C° 0 mm 1 mps 740 mmHg 90%
03:00 +21°C° 0 mm 1 mps 740 mmHg 89%
04:00 +21°C° 0 mm 1 mps 740 mmHg 88%
05:00 +21°C° 0 mm 1 mps 739 mmHg 86%
06:00 +23°C° 0 mm 1 mps 740 mmHg 79%
07:00 +25°C° 0 mm 2 mps 740 mmHg 72%
08:00 +27°C° 0 mm 2 mps 740 mmHg 64%
09:00 +28°C° 0 mm 3 mps 740 mmHg 60%
10:00 +29°C° 0 mm 3 mps 740 mmHg 56%
11:00 +30°C° 0 mm 4 mps 740 mmHg 51%
12:00 +30°C° 0 mm 4 mps 740 mmHg 52%
13:00 +30°C° 0 mm 4 mps 740 mmHg 52%
14:00 +32°C° 0 mm 4 mps 740 mmHg 52%
15:00 +30°C° 0 mm 5 mps 739 mmHg 54%
16:00 +30°C° 0 mm 5 mps 739 mmHg 56%
17:00 +29°C° 0 mm 5 mps 739 mmHg 58%
18:00 +27°C° 0 mm 4 mps 738 mmHg 63%
19:00 +25°C° 0 mm 4 mps 738 mmHg 67%
20:00 +22°C° 0 mm 3 mps 738 mmHg 72%
21:00 +22°C° 0 mm 3 mps 738 mmHg 74%
22:00 +21°C° 0 mm 3 mps 738 mmHg 75%
23:00 +20°C° 0 mm 2 mps 739 mmHg 77%

Tomorrow, 3 July, Friday

Time Temperature Precipitation Wind Pressure Humidity
00:00 +20°C° 0 mm 2 mps 738 mmHg 77%
01:00 +19°C° 0 mm 2 mps 738 mmHg 77%
02:00 +19°C° 0 mm 2 mps 738 mmHg 76%
03:00 +18°C° 0 mm 2 mps 738 mmHg 76%
04:00 +18°C° 0 mm 2 mps 738 mmHg 76%
05:00 +19°C° 0 mm 1 mps 737 mmHg 75%
06:00 +21°C° 0 mm 1 mps 738 mmHg 70%
07:00 +23°C° 0 mm 2 mps 738 mmHg 65%
08:00 +25°C° 0 mm 2 mps 738 mmHg 60%
09:00 +27°C° 0 mm 2 mps 738 mmHg 56%
10:00 +28°C° 0 mm 2 mps 738 mmHg 52%
11:00 +30°C° 0 mm 2 mps 738 mmHg 48%
12:00 +31°C° 0 mm 2 mps 738 mmHg 47%
13:00 +31°C° 0 mm 2 mps 738 mmHg 45%
14:00 +32°C° 0 mm 2 mps 738 mmHg 43%
15:00 +32°C° 0 mm 2 mps 737 mmHg 45%
16:00 +32°C° 0 mm 2 mps 737 mmHg 47%
17:00 +31°C° 0 mm 2 mps 737 mmHg 49%
18:00 +29°C° 0 mm 2 mps 737 mmHg 58%
19:00 +27°C° 0 mm 2 mps 737 mmHg 66%
20:00 +25°C° 0 mm 2 mps 737 mmHg 75%
21:00 +24°C° 0 mm 2 mps 738 mmHg 77%
22:00 +24°C° 0 mm 2 mps 738 mmHg 79%
23:00 +23°C° 0 mm 1 mps 738 mmHg 80%

Day after tomorrow, 4 July, Saturday

Time Temperature Precipitation Wind Pressure Humidity
00:00 +23°C° 0 mm 1 mps 738 mmHg 82%
01:00 +22°C° 0 mm 1 mps 738 mmHg 83%
02:00 +22°C° 0 mm 1 mps 738 mmHg 84%
03:00 +22°C° 0 mm 1 mps 738 mmHg 87%
04:00 +22°C° 0 mm 1 mps 738 mmHg 90%
05:00 +20°C° 0 mm 2 mps 738 mmHg 92%
06:00 +23°C° 0 mm 2 mps 739 mmHg 88%
07:00 +24°C° 0 mm 3 mps 739 mmHg 83%
08:00 +26°C° 0 mm 3 mps 739 mmHg 78%
09:00 +27°C° 0 mm 3 mps 739 mmHg 72%
10:00 +28°C° 0 mm 3 mps 739 mmHg 67%
11:00 +30°C° 0 mm 2 mps 739 mmHg 61%
12:00 +30°C° 0.4 mm 2 mps 739 mmHg 59%
13:00 +30°C° 0.4 mm 2 mps 739 mmHg 58%
14:00 +31°C° 0.4 mm 1 mps 738 mmHg 56%
15:00 +30°C° 1.3 mm 1 mps 738 mmHg 60%
16:00 +30°C° 1.3 mm 1 mps 738 mmHg 63%
17:00 +29°C° 1.3 mm 1 mps 738 mmHg 66%
18:00 +28°C° 0.1 mm 1 mps 738 mmHg 69%
19:00 +27°C° 0.1 mm 1 mps 738 mmHg 72%
20:00 +26°C° 0.1 mm 1 mps 738 mmHg 75%
21:00 +25°C° 0.3 mm 1 mps 738 mmHg 77%
22:00 +24°C° 0.3 mm 1 mps 738 mmHg 80%
23:00 +23°C° 0.3 mm 1 mps 738 mmHg 82%

5 July, Sunday

Time Temperature Precipitation Wind Pressure Humidity
00:00 +23°C° 0.1 mm 1 mps 738 mmHg 85%
01:00 +22°C° 0.1 mm 1 mps 738 mmHg 87%
02:00 +22°C° 0.1 mm 1 mps 738 mmHg 90%
03:00 +22°C° 0.1 mm 1 mps 738 mmHg 91%
04:00 +21°C° 0.1 mm 1 mps 738 mmHg 92%
05:00 +21°C° 0.1 mm 1 mps 738 mmHg 94%
06:00 +22°C° 0 mm 1 mps 738 mmHg 90%
07:00 +24°C° 0 mm 1 mps 738 mmHg 86%
08:00 +25°C° 0 mm 1 mps 738 mmHg 82%
09:00 +26°C° 0.1 mm 2 mps 738 mmHg 79%
10:00 +27°C° 0.1 mm 2 mps 738 mmHg 76%
11:00 +27°C° 0.1 mm 3 mps 738 mmHg 73%
12:00 +28°C° 0.4 mm 3 mps 738 mmHg 71%
13:00 +28°C° 0.4 mm 3 mps 738 mmHg 69%
14:00 +29°C° 0.4 mm 3 mps 738 mmHg 67%
15:00 +29°C° 0.5 mm 3 mps 737 mmHg 68%
16:00 +29°C° 0.5 mm 3 mps 737 mmHg 68%
17:00 +29°C° 0.5 mm 3 mps 737 mmHg 69%
18:00 +27°C° 0.3 mm 3 mps 737 mmHg 74%
19:00 +26°C° 0.3 mm 2 mps 737 mmHg 79%
20:00 +24°C° 0.3 mm 2 mps 737 mmHg 85%
21:00 +24°C° 0.1 mm 2 mps 738 mmHg 87%
22:00 +23°C° 0.1 mm 2 mps 738 mmHg 89%
23:00 +21°C° 0.1 mm 2 mps 738 mmHg 91%

6 July, Monday

Time Temperature Precipitation Wind Pressure Humidity
00:00 +21°C° 0 mm 2 mps 738 mmHg 93%
01:00 +21°C° 0 mm 2 mps 738 mmHg 95%
02:00 +20°C° 0 mm 2 mps 738 mmHg 96%
03:00 +21°C° 0 mm 1 mps 738 mmHg 97%
04:00 +21°C° 0 mm 1 mps 738 mmHg 97%
05:00 +21°C° 0 mm 1 mps 738 mmHg 97%
06:00 +22°C° 0 mm 1 mps 738 mmHg 94%
07:00 +23°C° 0 mm 2 mps 738 mmHg 90%
08:00 +24°C° 0 mm 2 mps 738 mmHg 86%
09:00 +25°C° 0 mm 2 mps 738 mmHg 80%
10:00 +27°C° 0 mm 2 mps 738 mmHg 75%
11:00 +28°C° 0 mm 2 mps 738 mmHg 69%
12:00 +30°C° 0.1 mm 2 mps 738 mmHg 64%
13:00 +31°C° 0.1 mm 2 mps 738 mmHg 59%
14:00 +32°C° 0.1 mm 2 mps 737 mmHg 53%
15:00 +32°C° 0.1 mm 2 mps 737 mmHg 54%
16:00 +32°C° 0.1 mm 2 mps 737 mmHg 56%
17:00 +32°C° 0.1 mm 2 mps 737 mmHg 57%
18:00 +30°C° 0.2 mm 2 mps 737 mmHg 62%
19:00 +28°C° 0.2 mm 1 mps 737 mmHg 68%
20:00 +26°C° 0.2 mm 1 mps 737 mmHg 74%
21:00 +25°C° 0 mm 1 mps 737 mmHg 76%
22:00 +25°C° 0 mm 1 mps 737 mmHg 77%
23:00 +24°C° 0 mm 1 mps 737 mmHg 79%

7 July, Tuesday

Time Temperature Precipitation Wind Pressure Humidity
00:00 +21°C° 0 mm 0 mps 736 mmHg 80%
01:00 +21°C° 0 mm 0 mps 736 mmHg 80%
02:00 +21°C° 0 mm 0 mps 736 mmHg 81%
03:00 +20°C° 0 mm 0 mps 736 mmHg 81%
04:00 +20°C° 0 mm 0 mps 736 mmHg 81%
05:00 +20°C° 0 mm 0 mps 736 mmHg 82%
06:00 +24°C° 0 mm 1 mps 736 mmHg 77%
07:00 +26°C° 0 mm 1 mps 736 mmHg 72%
08:00 +27°C° 0 mm 1 mps 736 mmHg 68%
09:00 +29°C° 0.2 mm 1 mps 736 mmHg 63%
10:00 +30°C° 0.2 mm 2 mps 736 mmHg 58%
11:00 +31°C° 0.2 mm 2 mps 736 mmHg 53%
12:00 +32°C° 0.1 mm 2 mps 735 mmHg 51%
13:00 +32°C° 0.1 mm 2 mps 735 mmHg 49%
14:00 +34°C° 0.1 mm 2 mps 735 mmHg 48%
15:00 +34°C° 0 mm 2 mps 735 mmHg 49%
16:00 +32°C° 0 mm 2 mps 735 mmHg 51%
17:00 +32°C° 0 mm 2 mps 735 mmHg 52%
18:00 +31°C° 0 mm 2 mps 735 mmHg 57%
19:00 +29°C° 0 mm 2 mps 735 mmHg 61%
20:00 +27°C° 0 mm 1 mps 735 mmHg 66%
21:00 +26°C° 0.2 mm 1 mps 735 mmHg 68%
22:00 +25°C° 0.2 mm 1 mps 735 mmHg 70%
23:00 +25°C° 0.2 mm 1 mps 736 mmHg 73%
Show more